Location: Mapua
(41.2500°S, 173.1000°E)
Time: 15:13:26
(UTC+12:00)

Envisat - Visible Passes

Search period start: 16 July 2018 00:00
Search period end: 26 July 2018 00:00
Orbit: 764 x 766 km, 98.2° (Epoch: 15 July)

Date Brightness Start Highest point End Pass type
(mag) Time Alt. Az. Time Alt. Az. Time Alt. Az.
16 Jul 4.2 07:03:47 10° NE 07:08:37 44° ESE 07:13:30 10° S visible
17 Jul 5.4 06:28:24 10° ENE 06:32:12 21° ESE 06:36:01 10° SSE visible
18 Jul 6.1 05:55:45 10° ESE 05:55:59 10° ESE 05:56:13 10° SE visible
19 Jul 4.6 06:52:54 10° NE 06:57:31 35° ESE 07:02:11 10° S visible
20 Jul 5.6 06:17:54 10° ENE 06:21:10 17° ESE 06:24:27 10° SSE visible
22 Jul 5.0 06:42:07 10° NE 06:46:27 28° ESE 06:50:49 10° S visible
23 Jul 5.7 06:07:35 10° E 06:10:09 14° ESE 06:12:43 10° SSE visible
24 Jul 4.1 07:06:56 10° NE 07:11:50 48° ESE 07:16:47 10° S visible
25 Jul 5.3 06:31:26 10° ENE 06:35:23 23° ESE 06:39:23 10° SSE visible
